Weather History for Soldotna, AK

Change the Weather History Date:

Sunday, March 30, 2014

  Actual Average Record
Temperature  
Mean Temperature 24 °F -  
Max Temperature 39 °F 35 °F 48 °F (1961)
Min Temperature 10 °F 16 °F -15 °F (1972)
Degree Days  
Heating Degree Days 40    
Moisture  
Dew Point 10 °F    
Average Humidity 55    
Maximum Humidity 85    
Minimum Humidity 31    
Precipitation  
Precipitation 0.00 in - - ()
Sea Level Pressure  
Sea Level Pressure 29.99 in    
Wind  
Wind Speed 2 mph (NNE)    
Max Wind Speed 8 mph    
Max Gust Speed -    
Visibility 10 miles    
Events      
Averages and records for this station are not official NWS values.
T = Trace of Precipitation, MM = Missing Value Source: NWS Daily Summary

Daily Weather History Graph

Daily Weather History Graph

Search for Another Location

Airport:

Trip Planner

Search our weather history database for the weather conditions in past years. The results will help you decide how hot, cold, wet, or windy it might be!

Date:

Astronomy

Mar. 30, 2014 Rise Set
Actual Time 7:34 AM AKDT 8:44 PM AKDT
Civil Twilight 6:50 AM AKDT 9:27 PM AKDT
Nautical Twilight 5:57 AM AKDT 10:22 PM AKDT
Astronomical Twilight 4:55 AM AKDT 11:25 PM AKDT
Moon 7:24 AM AKDT (3/30) 9:19 PM AKDT (3/30)
Length of Visible Light 14h 37m
Length of Day
13h 10m
Waxing Crescent, 0% of the Moon is Illuminated
Mar 30
Waxing Crescent
Apr 7
First Quarter
Apr 14
Full
Apr 21
Last Quarter
Apr 28
New

Hourly Weather History & Observations

Time (AKDT) Temp. Windchill Dew Point Humidity Pressure Visibility Wind Dir Wind Speed Gust Speed Precip Events Conditions
12:16 AM 21.2 °F - 10.4 °F 63% 29.87 in 10.0 mi Calm Calm - N/A   Clear
12:36 AM 19.4 °F - 10.4 °F 68% 29.88 in 10.0 mi Calm Calm - N/A   Clear
12:56 AM 17.6 °F - 8.6 °F 68% 29.88 in 10.0 mi Calm Calm - N/A   Clear
1:16 AM 17.6 °F - 6.8 °F 63% 29.89 in 10.0 mi Calm Calm - N/A   Clear
1:36 AM 17.6 °F - 6.8 °F 63% 29.90 in 10.0 mi Calm Calm - N/A   Clear
1:56 AM 17.6 °F - 6.8 °F 63% 29.90 in 10.0 mi Calm Calm - N/A   Clear
2:16 AM 15.8 °F - 6.8 °F 68% 29.90 in 10.0 mi Calm Calm - N/A   Clear
2:36 AM 15.8 °F - 6.8 °F 68% 29.91 in 10.0 mi Calm Calm - N/A   Clear
2:56 AM 15.8 °F 10.2 °F 6.8 °F 68% 29.91 in 10.0 mi East 3.5 mph - N/A   Clear
3:16 AM 15.8 °F - 6.8 °F 68% 29.92 in 10.0 mi Calm Calm - N/A   Clear
3:36 AM 15.8 °F 10.2 °F 6.8 °F 68% 29.92 in 10.0 mi East 3.5 mph - N/A   Clear
3:56 AM 14.0 °F - 6.8 °F 73% 29.92 in 10.0 mi Calm Calm - N/A   Clear
4:16 AM 14.0 °F 8.2 °F 6.8 °F 73% 29.93 in 10.0 mi East 3.5 mph - N/A   Clear
4:36 AM 14.0 °F - 6.8 °F 73% 29.93 in 10.0 mi Calm Calm - N/A   Clear
4:56 AM 14.0 °F - 6.8 °F 73% 29.93 in 10.0 mi Calm Calm - N/A   Clear
5:16 AM 12.2 °F - 6.8 °F 79% 29.94 in 10.0 mi Calm Calm - N/A   Clear
5:36 AM 12.2 °F 6.1 °F 6.8 °F 79% 29.95 in 10.0 mi ENE 3.5 mph - N/A   Clear
5:56 AM 12.2 °F 6.1 °F 6.8 °F 79% 29.95 in 10.0 mi ENE 3.5 mph - N/A   Clear
6:16 AM 10.4 °F 4.0 °F 3.2 °F 73% 29.95 in 10.0 mi NE 3.5 mph - N/A   Clear
6:36 AM 10.4 °F - 3.2 °F 73% 29.96 in 10.0 mi Calm Calm - N/A   Clear
6:56 AM 10.4 °F 4.0 °F 3.2 °F 73% 29.96 in 10.0 mi ENE 3.5 mph - N/A   Clear
7:16 AM 10.4 °F 4.0 °F 3.2 °F 73% 29.96 in 10.0 mi ENE 3.5 mph - N/A   Clear
7:36 AM 12.2 °F 4.3 °F 6.8 °F 79% 29.97 in 10.0 mi East 4.6 mph - N/A   Clear
7:56 AM 12.2 °F 2.9 °F 6.8 °F 79% 29.97 in 10.0 mi East 5.8 mph - N/A   Clear
8:16 AM 12.2 °F - 6.8 °F 79% 29.98 in 10.0 mi Calm Calm - N/A   Clear
8:36 AM 12.2 °F 6.1 °F 8.6 °F 85% 29.98 in 10.0 mi ENE 3.5 mph - N/A   Clear
8:56 AM 15.8 °F 8.6 °F 6.8 °F 68% 29.98 in 10.0 mi East 4.6 mph - N/A   Clear
9:16 AM 15.8 °F 8.6 °F 8.6 °F 73% 29.99 in 10.0 mi ENE 4.6 mph - N/A   Clear
9:36 AM 17.6 °F 12.3 °F 10.4 °F 73% 29.99 in 10.0 mi East 3.5 mph - N/A   Clear
9:56 AM 19.4 °F 14.3 °F 10.4 °F 68% 29.99 in 10.0 mi East 3.5 mph - N/A   Clear
10:16 AM 23.0 °F - 10.4 °F 59% 30.00 in 10.0 mi Calm Calm - N/A   Clear
10:36 AM 24.8 °F - 12.2 °F 59% 30.00 in 10.0 mi Calm Calm - N/A   Clear
10:56 AM 28.4 °F - 12.2 °F 51% 30.01 in 10.0 mi Calm Calm - N/A   Clear
11:16 AM 30.2 °F - 12.2 °F 47% 30.01 in 10.0 mi Calm Calm - N/A   Clear
11:36 AM 33.8 °F - 15.8 °F 48% 30.01 in 10.0 mi Calm Calm - N/A   Clear
11:56 AM 33.8 °F 30.8 °F 12.2 °F 41% 30.01 in 10.0 mi ENE 3.5 mph - N/A   Clear
12:16 PM 35.6 °F 31.7 °F 12.2 °F 38% 30.01 in 10.0 mi NNW 4.6 mph - N/A   Clear
12:36 PM 35.6 °F - 10.4 °F 35% 30.01 in 10.0 mi Calm Calm - N/A   Clear
12:56 PM 35.6 °F - 12.2 °F 38% 30.01 in 10.0 mi Calm Calm - N/A   Clear
1:16 PM 37.4 °F 32.1 °F 12.2 °F 36% 30.01 in 10.0 mi North 6.9 mph - N/A   Clear
1:36 PM 37.4 °F 31.4 °F 12.2 °F 36% 30.01 in 10.0 mi NNW 8.1 mph - N/A   Clear
1:56 PM 37.4 °F 32.1 °F 14.0 °F 38% 30.01 in 10.0 mi NW 6.9 mph - N/A   Clear
2:16 PM 37.4 °F 31.4 °F 12.2 °F 36% 30.01 in 10.0 mi North 8.1 mph - N/A   Clear
2:36 PM 37.4 °F 32.8 °F 12.2 °F 36% 30.01 in 10.0 mi NNW 5.8 mph - N/A   Clear
2:56 PM 39.2 °F 37.0 °F 14.0 °F 36% 30.01 in 10.0 mi NNE 3.5 mph - N/A   Clear
3:16 PM 39.2 °F 37.0 °F 12.2 °F 33% 30.01 in 10.0 mi North 3.5 mph - N/A   Clear
3:36 PM 39.2 °F 35.9 °F 14.0 °F 36% 30.01 in 10.0 mi NNE 4.6 mph - N/A   Clear
3:56 PM 39.2 °F 35.9 °F 14.0 °F 36% 30.01 in 10.0 mi NNE 4.6 mph - N/A   Clear
4:16 PM 39.2 °F 35.9 °F 12.2 °F 33% 30.01 in 10.0 mi NNE 4.6 mph - N/A   Clear
4:36 PM 39.2 °F 34.2 °F 12.2 °F 33% 30.01 in 10.0 mi NNW 6.9 mph - N/A   Clear
4:56 PM 39.2 °F 34.2 °F 12.2 °F 33% 30.01 in 10.0 mi NNW 6.9 mph - N/A   Clear
5:16 PM 39.2 °F 35.0 °F 12.2 °F 33% 30.01 in 10.0 mi North 5.8 mph - N/A   Clear
5:36 PM 39.2 °F 35.9 °F 12.2 °F 33% 30.02 in 10.0 mi NNW 4.6 mph - N/A   Clear
5:56 PM 39.2 °F 34.2 °F 10.4 °F 31% 30.02 in 10.0 mi NW 6.9 mph - N/A   Clear
6:16 PM 39.2 °F 34.2 °F 12.2 °F 33% 30.02 in 10.0 mi NW 6.9 mph - N/A   Clear
6:36 PM 39.2 °F 34.2 °F 10.4 °F 31% 30.02 in 10.0 mi NNW 6.9 mph - N/A   Clear
6:56 PM 39.2 °F 35.9 °F 10.4 °F 31% 30.02 in 10.0 mi North 4.6 mph - N/A   Clear
7:16 PM 39.2 °F 37.0 °F 10.4 °F 31% 30.03 in 10.0 mi North 3.5 mph - N/A   Clear
7:36 PM 39.2 °F 35.0 °F 10.4 °F 31% 30.03 in 10.0 mi North 5.8 mph - N/A   Clear
7:56 PM 39.2 °F - 10.4 °F 31% 30.03 in 10.0 mi Calm Calm - N/A   Clear
8:16 PM 35.6 °F 29.9 °F 17.6 °F 48% 30.04 in 10.0 mi West 6.9 mph - N/A   Clear
8:36 PM 33.8 °F 28.6 °F 15.8 °F 48% 30.04 in 10.0 mi West 5.8 mph - N/A   Clear
8:56 PM 32.0 °F 27.5 °F 15.8 °F 51% 30.04 in 10.0 mi West 4.6 mph - N/A   Clear
9:16 PM 30.2 °F - 12.2 °F 47% 30.04 in 10.0 mi Calm Calm - N/A   Clear
9:36 PM 28.4 °F - 14.0 °F 55% 30.05 in 10.0 mi Calm Calm - N/A   Clear
9:56 PM 28.4 °F - 14.0 °F 55% 30.05 in 10.0 mi Calm Calm - N/A   Clear
10:16 PM 24.8 °F - 17.6 °F 74% 30.05 in 10.0 mi Calm Calm - N/A   Clear
10:36 PM 24.8 °F - 15.8 °F 69% 30.06 in 10.0 mi Calm Calm - N/A   Clear
10:56 PM 24.8 °F - 12.2 °F 59% 30.06 in 10.0 mi Calm Calm - N/A   Clear
11:16 PM 24.8 °F - 12.2 °F 59% 30.06 in 10.0 mi Calm Calm - N/A   Clear
11:36 PM 23.0 °F - 12.2 °F 63% 30.07 in 10.0 mi Calm Calm - N/A   Clear
11:56 PM 21.2 °F - 12.2 °F 68% 30.07 in 10.0 mi Calm Calm - N/A   Clear